DW7807 Weather Reports


time (UTC)temp
F
wind
direction
speed
knots
gust
knots
rain 1hr
in
rain 24hr
in
rain mn
in
humidity
%
barometer
mb
20210920061636 64 81 0.0 0.0 0.00 0.00 0.00 90 1022.2
20210920060207 64 51 0.0 0.0 0.00 0.00 0.00 90 1022.2
20210920054659 64 24 0.0 0.0 0.00 0.00 0.00 90 1022.1
20210920053131 64 23 0.0 0.0 0.00 0.00 0.00 90 1022.1
20210920051619 64 21 0.0 0.0 0.00 0.00 0.00 90 1022.0
20210920050122 65 21 0.0 0.0 0.00 0.00 0.00 90 1022.0
20210920044655 65 21 0.0 0.0 0.00 0.00 0.00 90 1022.2
20210920043157 65 21 0.0 0.0 0.00 0.00 0.00 90 1022.1
20210920041641 65 21 0.0 0.0 0.00 0.00 0.00 89 1022.1
20210920040104 65 21 0.0 0.0 0.00 0.00 0.00 89 1022.1
20210920034620 65 21 0.0 0.0 0.00 0.00 0.00 89 1022.0
20210920033049 65 21 0.0 0.0 0.00 0.00 0.00 88 1022.0
20210920031549 66 21 0.0 0.0 0.00 0.00 0.00 87 1022.0
20210920030128 66 21 0.0 0.0 0.00 0.00 0.00 87 1022.0
20210920024627 66 21 0.0 0.0 0.00 0.00 0.00 86 1021.8
20210920023113 66 21 0.0 0.0 0.00 0.00 0.00 86 1021.7
20210920021552 67 21 0.0 0.0 0.00 0.00 0.00 84 1021.7
20210920020121 67 21 0.0 0.0 0.00 0.00 0.00 82 1021.7
20210920014540 68 21 0.0 0.0 0.00 0.00 0.00 81 1021.6
20210920013138 69 21 0.0 0.0 0.00 0.00 0.00 77 1021.7
20210920011600 69 20 0.0 0.0 0.00 0.00 0.00 75 1021.5
20210920010102 70 18 0.0 0.0 0.00 0.00 0.00 75 1021.3
20210920004617 70 18 0.0 0.0 0.00 0.00 0.00 74 1020.9
20210920003111 70 18 0.0 0.0 0.00 0.00 0.00 73 1020.9
20210920001624 70 18 0.0 0.0 0.00 0.00 0.00 73 1020.7
20210920000125 71 18 0.0 0.0 0.00 0.00 0.00 72 1020.6
20210919234625 72 18 0.0 0.0 0.00 0.00 0.00 70 1020.5
20210919233100 74 18 0.0 0.0 0.00 0.00 0.00 68 1020.5
20210919231603 75 18 0.0 0.0 0.00 0.00 0.00 63 1020.4
20210919230043 76 360 0.0 0.0 0.00 0.00 0.00 66 1020.5
20210919224545 76 351 0.0 0.0 0.00 0.00 0.00 62 1020.6
20210919223045 78 342 0.0 0.0 0.00 0.00 0.00 62 1020.6
20210919221536 78 342 0.0 0.0 0.00 0.00 0.00 63 1020.6
20210919220115 79 341 0.0 0.0 0.00 0.00 0.00 58 1020.6
20210919214548 79 338 0.0 0.0 0.00 0.01 0.00 61 1020.6
20210919213039 79 327 0.0 0.0 0.00 0.01 0.00 58 1020.6
20210919211603 79 330 0.0 0.0 0.00 0.01 0.00 57 1020.6
20210919210029 80 334 0.0 0.0 0.00 0.01 0.00 55 1020.8
20210919204540 80 332 0.0 0.0 0.00 0.01 0.00 58 1020.9
20210919203108 80 323 0.0 0.0 0.00 0.01 0.00 56 1020.9
20210919201537 80 14 0.0 0.9 0.00 0.01 0.00 59 1020.9
20210919200023 79 329 0.0 0.0 0.00 0.01 0.00 58 1021.1
20210919193016 79 321 0.0 0.9 0.00 0.01 0.00 60 1021.2
20210919191526 79 21 0.0 0.9 0.00 0.01 0.00 61 1021.2
20210919190043 79 306 0.0 0.9 0.00 0.01 0.00 64 1021.2
20210919184512 79 348 0.0 4.3 0.00 0.01 0.00 63 1021.3
20210919183010 79 21 2.6 7.8 0.00 0.01 0.00 62 1021.5
20210919181507 78 355 0.0 0.0 0.00 0.01 0.00 64 1021.7
20210919180006 78 355 0.0 0.0 0.00 0.01 0.00 67 1021.8
20210919174506 77 32 0.0 0.0 0.00 0.01 0.00 68 1022.2
20210919173006 77 15 0.0 0.0 0.00 0.01 0.00 68 1022.3
20210919171514 77 15 0.0 0.0 0.00 0.01 0.00 70 1022.4
20210919170005 78 15 0.0 0.0 0.00 0.01 0.00 67 1022.6
20210919164712 77 300 0.0 0.0 0.00 0.01 0.00 73 1022.5
20210919163216 76 300 0.0 0.0 0.00 0.01 0.00 71 1022.6
20210919161616 77 293 0.0 0.0 0.00 0.01 0.00 69 1022.6
20210919160138 77 281 0.0 0.0 0.00 0.01 0.00 69 1022.8
20210919154704 76 288 0.0 0.0 0.00 0.01 0.00 71 1023.0
20210919153132 76 288 0.0 0.0 0.00 0.01 0.00 73 1023.0
20210919151600 75 288 0.0 0.0 0.00 0.01 0.00 70 1023.2
20210919150136 74 290 0.0 0.0 0.00 0.01 0.00 77 1023.1
20210919144547 72 290 0.0 0.0 0.00 0.01 0.00 83 1023.1
20210919143050 70 290 0.0 0.0 0.00 0.01 0.00 86 1023.1
20210919141559 69 290 0.0 0.0 0.00 0.01 0.00 87 1023.0
20210919140113 68 290 0.0 0.0 0.00 0.01 0.00 88 1022.9
20210919134536 67 290 0.0 0.0 0.00 0.01 0.00 89 1022.9
20210919133046 67 290 0.0 0.0 0.00 0.01 0.00 89 1022.8
20210919131529 66 290 0.0 0.0 0.00 0.01 0.00 91 1022.8
20210919130039 65 290 0.0 0.0 0.00 0.01 0.00 91 1022.7
20210919124608 64 290 0.0 0.0 0.00 0.01 0.00 91 1022.6
20210919123024 63 290 0.0 0.0 0.00 0.01 0.00 91 1022.7
20210919121526 63 290 0.0 0.0 0.00 0.01 0.00 91 1022.8
20210919120054 63 290 0.0 0.0 0.00 0.01 0.00 91 1022.8
20210919114522 62 290 0.0 0.0 0.00 0.01 0.00 92 1022.7
20210919113020 62 290 0.0 0.0 0.00 0.01 0.00 91 1022.6
20210919111534 62 290 0.0 0.0 0.00 0.01 0.00 92 1022.4
20210919110057 62 290 0.0 0.0 0.00 0.01 0.00 91 1022.4
20210919104523 62 290 0.0 0.0 0.00 0.02 0.00 91 1022.3
20210919103016 62 290 0.0 0.0 0.00 0.02 0.00 91 1022.2
20210919101536 61 290 0.0 0.0 0.00 0.02 0.00 91 1022.1
20210919100025 61 290 0.0 0.0 0.00 0.02 0.00 91 1022.0
20210919094548 62 290 0.0 0.0 0.00 0.02 0.00 91 1022.0
20210919093018 62 290 0.0 0.0 0.00 0.02 0.00 91 1022.0
20210919091511 62 290 0.0 0.0 0.00 0.02 0.00 91 1022.0
20210919090009 62 290 0.0 0.0 0.00 0.02 0.00 89 1021.8
20210919084511 63 290 0.0 0.0 0.00 0.02 0.00 90 1021.7
20210919083012 63 290 0.0 0.0 0.00 0.02 0.00 90 1021.5
20210919081506 63 290 0.0 0.0 0.00 0.02 0.00 90 1021.6
20210919080057 63 290 0.0 0.0 0.00 0.02 0.00 90 1021.4
20210919073004 63 290 0.0 0.0 0.00 0.02 0.00 90 1021.5
20210919071634 63 290 0.0 0.0 0.00 0.02 0.00 90 1021.6
20210919070128 63 290 0.0 0.0 0.00 0.02 0.00 90 1021.7
20210919064703 63 290 0.0 0.0 0.00 0.02 0.00 90 1021.7
20210919063212 63 290 0.0 0.0 0.00 0.02 0.00 90 1021.8